{"data":{"norad_id":59685,"epoch":"2026-05-24T22:35:42.163008Z","epoch_age_seconds":86944,"freshness":"FRESH","line1":"1 59685U 24086D   26144.94146022  .00001192  00000+0  52837-4 0  9999","line2":"2 59685  43.0020 349.2855 0001142 277.1460  82.9262 15.27581411115770","mean_motion":15.27581411,"eccentricity":0.0001142,"inclination_deg":43.002,"raan_deg":349.2855,"arg_perigee_deg":277.146,"mean_anomaly_deg":82.9262,"bstar":5.2837e-5,"rev_number":11577,"period_min":94.266661641119,"perigee_km":482.26132403163,"apogee_km":483.82841797097,"semimajor_km":6861.1818710013,"source":"CELESTRAK","updated_at":"2026-05-25T13:38:19.023482Z"}}